CST,Max TemperatureF,Mean TemperatureF,Min TemperatureF,Max Dew PointF,MeanDew PointF,Min DewpointF,Max Humidity, Mean Humidity, Min Humidity, Max Sea Level PressureIn, Mean Sea Level PressureIn, Min Sea Level PressureIn, Max VisibilityMiles, Mean VisibilityMiles, Min VisibilityMiles, Max Wind SpeedMPH, Mean Wind SpeedMPH, Max Gust SpeedMPH,PrecipitationIn, CloudCover, Events, WindDirDegrees
2013-2-1,29,14,0,25,10,-5,86,75,67,30.41,30.19,30.03,10,10,10,18,6,22,0.00,5,,182
2013-2-2,38,30,23,33,26,20,96,84,75,30.19,30.11,30.04,10,10,5,17,6,22,0.00,5,Rain,282
2013-2-3,45,32,19,32,26,17,90,72,52,30.21,30.03,29.77,10,10,10,26,12,38,0.00,0,,224
2013-2-4,39,30,22,32,24,21,96,88,73,30.04,29.93,29.76,10,10,7,16,8,24,0.00,7,,294
2013-2-5,50,38,27,33,29,25,98,74,40,30.06,29.94,29.81,10,10,7,21,8,28,0.00,2,,278
2013-2-6,52,42,32,39,34,29,95,77,58,30.06,29.92,29.83,10,10,10,21,7,29,0.00,3,,141
2013-2-7,41,36,29,37,30,25,99,88,81,30.25,30.08,29.89,10,8,2,17,8,24,0.00,7,,341
2013-2-8,33,30,26,29,27,24,96,89,81,30.33,30.23,30.11,10,9,3,16,6,21,0.00,5,,121
2013-2-9,50,40,29,38,33,28,99,84,63,30.12,29.90,29.67,10,7,3,22,15,28,0.00,5,Thunderstorm,138
2013-2-10,43,36,30,42,34,25,100,90,78,29.81,29.46,29.25,10,8,1,32,17,39,0.02,8,Rain-Snow-Thunderstorm,204
2013-2-11,34,28,23,28,24,22,95,79,66,30.14,30.05,29.83,10,10,7,30,19,38,0.00,5,Snow,291
2013-2-12,50,36,21,27,23,17,98,70,28,30.14,30.00,29.90,10,10,10,15,5,20,0.00,0,,241
2013-2-13,54,38,22,32,27,21,99,71,32,29.90,29.80,29.72,10,10,7,15,4,21,0.01,1,,254
2013-2-14,45,32,20,33,28,15,99,77,42,30.29,30.02,29.80,10,10,0,26,13,32,0.00,4,Snow,300
2013-2-15,31,22,12,29,18,10,98,84,58,30.35,30.32,30.28,10,9,1,12,7,16,0.00,4,Snow,295
2013-2-16,34,22,9,28,20,8,97,85,69,30.33,30.13,29.99,10,10,10,13,6,17,0.00,5,,170
2013-2-17,53,39,25,36,30,23,91,73,53,29.99,29.77,29.55,10,10,10,20,9,26,0.00,0,,136
2013-2-18,41,31,21,33,25,16,97,79,60,30.08,29.80,29.57,10,10,0,32,12,40,0.00,4,Snow,321
2013-2-19,26,16,7,14,4,-2,80,62,31,30.39,30.27,30.09,10,10,10,25,16,33,0.00,0,,321
2013-2-20,25,15,5,9,4,0,82,62,44,30.39,30.29,30.19,10,10,10,13,6,,0.00,5,,76
2013-2-21,26,24,21,22,16,8,98,76,54,30.22,30.02,29.86,10,6,0,17,12,23,0.10,8,Snow,58
2013-2-22,23,14,4,19,14,3,95,87,76,30.02,29.95,29.86,10,9,2,16,9,20,0.01,3,Snow,305
2013-2-23,33,16,-1,26,14,-5,94,84,69,29.99,29.89,29.81,10,10,7,10,3,,0.00,0,,170
2013-2-24,36,27,18,30,26,18,98,86,70,30.09,29.97,29.87,10,7,4,9,3,,0.00,6,,298
2013-2-25,34,28,23,29,26,23,99,91,76,30.10,30.03,29.93,7,4,1,10,6,,0.00,5,Snow,356
2013-2-26,31,28,24,29,26,24,100,96,90,29.94,29.88,29.81,5,3,1,15,9,20,0.00,8,,343
2013-2-27,38,30,23,29,25,21,97,82,61,30.12,30.00,29.91,10,8,4,28,17,36,0.00,4,,317
2013-2-28,31,28,25,26,24,21,90,85,79,30.25,30.20,30.12,10,10,10,20,16,29,0.00,8,,328